Temp
71 72 70 71 59 54 50 58 65 68 67 72 74 72 71 70 69 60 72 76 77 77 75 77 78 78 78 78 78 78 77 77 77 77 77 77 77 77 76 76 76 76 76 77 77 77 77 77 77
72 75 74 66 53 46 51 61 64 69 73 72 74 71 70 68 73 72 73 76 76 75 73 75 78 78 78 78 78 77 77 77 77 77 77 77 77 77 77 77 76 76 76 77 77 77 77 77 77
76 80 68 60 50 48 52 63 69 75 76 73 70 74 72 71 75 73 76 76 75 74 74 74 78 78 78 78 78 77 77 77 77 77 77 77 77 76 77 77 77 77 77 77 77 77 77 77 77
75 71 67 55 52 57 60 68 73 72 77 75 75 70 74 78 76 78 77 77 75 74 74 75 78 77 78 78 78 77 77 77 77 77 77 77 76 77 76 76 77 77 77 77 77 77 77 77 77
72 64 54 51 55 60 68 71 71 71 73 72 73 69 70 78 78 76 76 77 74 70 69 74 77 77 78 78 78 77 77 77 77 77 77 77 76 76 76 76 76 76 77 77 77 77 76 76 77
63 62 51 50 57 65 69 72 69 72 73 71 70 70 70 75 75 73 74 72 75 71 69 72 77 77 77 78 77 77 76 76 76 76 76 76 76 76 76 76 76 76 76 76 77 77 76 75 75
60 55 51 54 61 63 68 72 70 71 69 73 74 68 69 71 75 73 73 71 71 71 71 69 72 76 78 77 77 76 75 75 75 75 75 75 75 75 75 75 75 75 75 75 75 75 76 75 74
66 60 53 56 57 61 70 71 70 71 76 77 77 68 66 72 74 71 69 68 67 67 67 65 66 68 68 69 77 76 75 75 75 75 74 74 74 74 74 73 73 74 75 75 75 75 75 74 74
68 53 50 55 58 63 67 66 74 80 75 77 78 75 76 76 71 68 66 65 63 68 64 63 65 64 65 66 69 75 77 76 75 74 74 71 64 64 66 69 71 72 73 73 74 74 74 74 74
63 51 56 68 65 64 68 67 71 74 75 74 75 75 74 76 72 70 67 66 64 64 64 63 63 63 64 70 65 64 66 65 64 65 64 63 62 61 64 66 71 72 73 74 73 73 74 73 66
61 60 68 69 70 68 69 72 78 73 69 74 73 73 71 70 71 71 71 71 70 65 64 62 63 63 64 64 61 60 60 60 61 63 62 60 61 59 60 59 60 60 66 61 64 64 64 65 63
58 66 71 72 75 70 69 74 73 76 77 83 78 75 71 71 71 71 71 69 65 64 65 64 63 63 62 62 60 59 59 60 60 61 61 59 58 58 58 58 59 59 59 59 60 60 62 62 63
61 66 71 73 72 74 76 71 73 75 81 81 78 73 72 72 72 72 73 68 64 63 64 62 62 61 61 60 59 59 59 60 60 60 60 59 58 58 58 58 58 58 58 58 58 59 60 61 62
65 66 67 70 70 73 71 72 73 77 80 76 73 71 73 72 72 69 65 64 64 65 63 62 62 61 61 60 59 59 59 60 60 59 60 61 59 58 58 58 58 58 58 58 58 59 59 59 60
65 61 65 67 71 69 75 67 69 78 77 73 71 73 73 72 73 70 71 66 67 65 63 62 61 61 60 60 60 59 60 61 60 60 61 61 60 59 59 58 57 58 59 58 58 58 59 58 59
59 56 51 66 70 72 69 59 72 77 72 72 71 72 72 71 71 73 68 65 63 63 63 62 67 61 60 60 60 60 60 60 60 60 60 62 62 61 58 58 58 59 58 58 57 57 57 58 58
50 50 52 58 68 66 65 61 70 73 71 70 71 70 73 72 70 66 67 63 63 64 61 61 61 61 60 60 60 60 61 60 60 60 60 62 63 62 59 58 58 59 58 57 57 56 57 57 58
49 46 52 55 64 64 62 61 69 71 71 69 70 71 70 68 70 65 63 64 62 61 61 61 61 60 60 60 60 59 59 60 60 60 60 61 61 62 60 59 58 58 57 56 56 57 57 58 59
58 53 51 59 65 62 59 60 64 70 68 68 66 66 68 65 64 63 64 64 62 60 60 60 60 59 60 59 59 58 58 59 59 59 61 61 61 61 59 59 58 58 56 56 57 57 59 59 59
56 52 52 60 64 61 59 59 66 68 68 69 70 67 64 60 60 62 61 64 62 60 60 60 61 59 60 59 59 59 58 59 59 59 60 60 61 61 60 59 58 58 56 56 56 58 56 56 59
55 52 54 54 60 62 58 56 61 69 67 69 69 69 68 64 59 60 61 61 60 59 59 60 60 60 61 61 59 58 58 58 58 58 58 59 61 62 61 60 59 57 57 55 56 57 57 56 57
51 61 60 58 52 46 57 41 53 60 64 66 68 67 65 60 60 61 61 58 60 59 60 60 60 61 62 61 59 57 56 55 56 57 57 59 61 62 62 61 59 58 57 56 57 58 58 57 56
57 63 58 58 52 48 52 45 50 57 60 64 66 67 60 59 60 60 61 62 60 60 59 60 60 61 61 60 59 57 56 56 57 57 57 58 59 60 62 62 61 59 57 57 58 57 57 57 57
66 57 55 55 49 42 52 47 48 55 60 63 66 64 59 58 59 59 60 61 59 59 59 59 60 60 60 60 59 58 57 56 56 57 57 57 58 58 60 62 60 59 57 57 58 58 58 59 59
60 49 38 34 36 37 53 47 54 60 63 66 66 61 58 59 58 60 61 58 58 58 58 59 59 59 60 60 59 59 58 57 57 57 57 58 58 58 58 60 59 57 58 58 58 58 59 59 60
55 53 38 31 33 41 52 44 52 64 68 68 66 60 60 58 59 61 61 59 60 59 58 59 59 59 59 60 59 59 58 57 57 57 57 57 58 59 59 60 60 60 60 59 59 58 58 59 59
55 49 57 45 44 40 45 52 60 61 62 61 59 59 57 58 58 60 59 59 59 58 58 59 59 59 59 60 59 59 59 58 57 57 57 58 58 60 60 60 61 61 60 59 59 58 58 58 59
56 60 46 43 34 34 43 46 50 56 59 59 57 57 57 56 57 59 60 58 60 59 58 58 59 59 59 60 59 60 60 59 58 58 58 58 59 59 59 59 60 60 60 59 59 58 58 59 57
52 52 48 51 44 36 35 43 55 60 59 59 58 59 57 57 59 60 61 59 60 58 57 58 58 59 59 59 59 60 60 60 59 59 59 59 59 60 60 60 60 59 59 59 59 61 61 60 59
62 56 52 48 40 45 42 47 60 62 63 64 64 60 58 59 60 61 60 58 57 57 57 57 58 59 59 60 60 60 60 59 59 59 59 60 59 60 60 60 60 60 60 59 60 61 61 60 59
MSLP
1012.03 1012.22 1012.57 1012.64 1013.65 1013.92 1012.89 1011.24 1009.50 1008.47 1007.33 1006.63 1006.29 1006.56 1006.76 1007.07 1007.65 1008.56 1007.35 1007.57 1008.03 1008.60 1009.29 1009.82 1010.25 1010.51 1010.95 1011.35 1011.64 1011.90 1012.08 1012.38 1012.65 1012.80 1012.86 1012.98 1013.23 1013.38 1013.48 1013.80 1013.85 1013.87 1013.81 1013.78 1013.73 1013.70 1013.62 1013.67 1013.75
1011.71 1012.20 1012.43 1012.80 1013.55 1013.75 1012.15 1010.24 1009.17 1007.72 1006.85 1006.29 1006.21 1006.41 1006.65 1007.02 1007.16 1007.48 1007.71 1007.75 1007.96 1008.48 1009.05 1009.64 1010.03 1010.59 1010.83 1011.18 1011.44 1011.74 1011.93 1012.13 1012.40 1012.63 1012.72 1012.67 1012.95 1013.07 1013.22 1013.43 1013.49 1013.45 1013.44 1013.51 1013.65 1013.69 1013.71 1013.72 1013.68
1011.39 1011.51 1012.45 1013.11 1013.44 1013.00 1011.32 1009.59 1008.28 1007.02 1006.35 1006.21 1006.55 1006.53 1006.74 1006.69 1006.87 1007.05 1006.74 1007.25 1008.05 1008.50 1008.76 1009.37 1009.88 1010.34 1010.65 1011.01 1011.20 1011.51 1011.75 1011.78 1011.92 1012.15 1012.41 1012.43 1012.56 1012.79 1013.00 1013.09 1013.22 1013.18 1013.16 1013.21 1013.34 1013.42 1013.68 1013.57 1013.57
1011.43 1011.93 1012.77 1013.18 1013.05 1011.81 1010.40 1008.74 1007.57 1007.05 1005.83 1006.00 1006.01 1006.66 1006.38 1005.91 1006.21 1006.23 1006.57 1007.38 1008.03 1008.42 1008.68 1009.18 1009.59 1010.01 1010.23 1010.54 1010.79 1011.09 1011.36 1011.74 1011.59 1011.62 1011.87 1012.01 1012.30 1012.35 1012.65 1012.80 1012.88 1013.04 1013.05 1012.98 1012.90 1013.10 1013.22 1013.34 1013.40
1011.73 1012.53 1012.99 1012.93 1012.14 1010.99 1009.47 1008.04 1007.18 1006.51 1005.92 1005.92 1006.01 1006.36 1006.29 1005.75 1005.93 1006.30 1006.77 1007.45 1007.73 1008.29 1008.67 1009.06 1009.34 1009.74 1010.10 1010.26 1010.53 1010.73 1011.05 1011.25 1011.50 1011.37 1011.43 1011.67 1011.87 1012.02 1012.28 1012.45 1012.55 1012.74 1012.75 1012.82 1012.87 1012.88 1013.02 1013.15 1013.17
1012.14 1012.75 1013.36 1012.75 1011.31 1010.15 1008.80 1007.32 1007.04 1006.42 1005.73 1005.64 1006.10 1006.26 1006.33 1006.01 1006.34 1006.73 1006.95 1007.31 1007.66 1008.12 1008.66 1008.90 1009.03 1009.38 1009.80 1010.15 1010.37 1010.59 1010.71 1011.01 1011.21 1011.15 1011.18 1011.36 1011.49 1011.74 1011.92 1012.10 1012.18 1012.31 1012.40 1012.44 1012.45 1012.46 1012.56 1012.72 1012.85
1012.02 1012.91 1012.67 1011.94 1010.59 1009.31 1008.05 1006.72 1006.45 1006.10 1005.70 1005.31 1005.36 1006.13 1006.17 1006.12 1006.39 1006.68 1007.01 1007.52 1007.85 1008.22 1008.50 1008.79 1009.15 1009.39 1009.72 1010.12 1010.29 1010.40 1010.68 1010.85 1010.90 1010.96 1011.06 1011.23 1011.42 1011.62 1011.76 1011.95 1011.93 1012.00 1012.03 1012.12 1012.17 1012.15 1012.23 1012.40 1012.59
1011.49 1012.53 1012.38 1011.34 1010.30 1008.81 1007.37 1006.65 1005.91 1005.77 1005.14 1004.96 1005.39 1005.92 1006.07 1005.24 1006.18 1006.88 1007.33 1007.76 1008.10 1008.45 1008.60 1008.98 1009.37 1009.65 1009.90 1010.21 1010.24 1010.27 1010.36 1010.68 1010.80 1010.87 1010.95 1011.09 1011.34 1011.45 1011.59 1011.76 1011.82 1011.75 1011.72 1011.76 1011.83 1011.90 1011.94 1012.15 1012.43
1011.11 1012.09 1011.90 1010.57 1009.78 1008.30 1007.17 1006.93 1005.55 1005.13 1005.03 1004.89 1004.82 1004.83 1004.86 1005.04 1006.33 1007.24 1007.96 1008.47 1008.60 1008.60 1008.69 1008.98 1009.30 1009.56 1009.74 1009.97 1010.03 1010.23 1010.19 1010.48 1010.59 1010.65 1010.72 1010.91 1011.22 1011.48 1011.62 1011.67 1011.60 1011.59 1011.59 1011.56 1011.52 1011.53 1011.60 1011.74 1012.13
1010.89 1011.49 1010.44 1008.54 1008.43 1007.91 1006.81 1006.93 1006.19 1005.72 1005.06 1004.86 1004.78 1004.58 1004.84 1005.21 1006.26 1006.99 1007.54 1007.99 1008.19 1008.50 1008.70 1008.72 1009.02 1009.46 1009.37 1009.30 1009.77 1010.13 1010.35 1010.38 1010.42 1010.48 1010.62 1010.78 1011.03 1011.23 1011.32 1011.51 1011.43 1011.25 1011.20 1011.13 1011.14 1011.12 1011.14 1011.24 1011.76
1010.05 1009.85 1008.04 1007.89 1007.54 1007.56 1007.18 1006.15 1006.10 1005.70 1005.16 1004.61 1004.62 1004.53 1005.19 1005.68 1006.08 1006.34 1006.72 1006.90 1007.04 1007.59 1008.14 1008.52 1008.89 1009.05 1008.92 1009.42 1009.78 1010.18 1010.36 1010.19 1010.18 1010.20 1010.31 1010.54 1010.76 1010.93 1011.12 1011.42 1011.37 1011.33 1011.23 1011.23 1011.12 1011.07 1011.01 1011.16 1011.56
1009.39 1008.84 1008.18 1007.20 1006.61 1006.91 1006.69 1006.17 1005.49 1005.06 1004.41 1003.82 1003.89 1003.63 1004.76 1005.49 1005.65 1005.81 1006.05 1006.13 1006.68 1007.22 1007.66 1008.21 1008.55 1008.68 1009.20 1009.24 1009.65 1009.93 1010.17 1009.92 1009.91 1009.81 1010.06 1010.46 1010.69 1010.95 1011.00 1011.11 1011.00 1011.08 1011.04 1011.07 1010.98 1011.08 1011.06 1011.10 1011.34
1008.57 1008.09 1007.72 1007.25 1006.95 1006.41 1006.04 1005.51 1004.93 1004.32 1003.68 1003.48 1003.65 1003.86 1004.30 1004.73 1004.82 1004.96 1005.09 1005.60 1006.23 1006.89 1007.41 1007.98 1008.41 1008.80 1009.19 1009.47 1009.48 1009.79 1009.71 1009.64 1009.43 1009.67 1009.82 1010.03 1010.34 1010.55 1010.59 1010.63 1010.59 1010.64 1010.81 1010.92 1010.98 1011.00 1011.04 1011.22 1011.38
1007.87 1008.02 1007.49 1007.08 1006.81 1006.20 1005.92 1004.77 1004.48 1003.53 1003.31 1003.40 1003.71 1003.56 1003.73 1004.15 1004.14 1004.75 1005.08 1005.47 1005.99 1006.40 1007.13 1007.71 1008.21 1008.71 1009.20 1009.36 1009.32 1009.25 1009.24 1009.13 1009.26 1009.37 1009.40 1009.51 1009.76 1010.04 1010.12 1010.19 1010.29 1010.41 1010.56 1010.69 1010.74 1010.79 1010.87 1011.15 1011.40
1007.98 1007.73 1007.07 1006.85 1006.08 1005.47 1005.37 1004.29 1003.66 1003.07 1003.19 1003.22 1003.27 1003.10 1003.19 1003.45 1003.91 1003.97 1003.59 1004.47 1005.13 1006.17 1007.05 1007.70 1008.10 1008.51 1008.90 1009.02 1008.99 1008.96 1008.88 1008.74 1008.89 1008.93 1008.94 1009.09 1009.24 1009.37 1009.50 1009.73 1009.96 1010.01 1010.18 1010.39 1010.56 1010.66 1010.79 1011.08 1011.33
1008.40 1008.09 1007.14 1006.00 1005.55 1005.10 1005.27 1003.59 1002.92 1002.60 1002.94 1002.85 1002.84 1002.90 1003.11 1003.09 1003.14 1003.05 1003.81 1004.67 1005.54 1006.44 1007.10 1007.63 1008.01 1008.33 1008.53 1008.62 1008.73 1008.70 1008.63 1008.57 1008.42 1008.40 1008.54 1008.58 1008.59 1008.72 1009.06 1009.43 1009.61 1009.52 1009.86 1010.17 1010.40 1010.57 1010.85 1011.16 1011.38
1008.94 1008.18 1007.10 1005.68 1005.63 1005.22 1004.90 1003.39 1002.59 1002.56 1002.79 1002.55 1002.27 1002.22 1002.46 1002.54 1002.71 1003.23 1003.84 1004.72 1005.47 1006.36 1007.02 1007.66 1008.00 1008.06 1008.21 1008.44 1008.52 1008.52 1008.46 1008.19 1008.15 1008.25 1008.32 1008.15 1008.16 1008.30 1008.74 1009.03 1009.18 1009.27 1009.66 1009.88 1010.11 1010.42 1010.66 1011.10 1011.36
1008.30 1008.15 1006.75 1005.68 1004.99 1004.88 1004.45 1003.72 1002.69 1002.09 1002.26 1001.95 1001.66 1001.46 1001.75 1002.13 1001.83 1002.58 1003.49 1004.47 1005.45 1006.46 1006.94 1007.46 1007.86 1007.86 1008.12 1008.35 1008.37 1008.35 1008.14 1007.99 1008.09 1008.22 1008.16 1007.92 1007.95 1008.04 1008.47 1008.67 1008.89 1009.21 1009.42 1009.73 1010.04 1010.26 1010.58 1010.80 1011.04
1007.14 1007.10 1006.52 1004.87 1005.02 1004.72 1004.15 1003.48 1002.74 1001.77 1001.81 1001.46 1000.97 1001.00 1001.19 1001.73 1002.24 1002.84 1003.70 1004.45 1005.49 1006.48 1007.04 1007.59 1007.67 1007.82 1008.14 1008.44 1008.38 1008.36 1008.17 1008.06 1008.04 1008.02 1007.93 1007.76 1007.72 1007.84 1008.18 1008.42 1008.65 1008.93 1009.22 1009.52 1009.88 1010.18 1010.50 1010.63 1010.93
1006.83 1006.65 1006.01 1004.73 1005.13 1005.01 1004.25 1003.51 1002.43 1001.75 1001.36 1000.76 1000.57 1000.48 1001.32 1001.93 1002.41 1003.11 1003.93 1004.57 1005.34 1006.35 1007.00 1007.43 1007.45 1007.76 1008.03 1008.08 1008.15 1008.11 1008.02 1007.95 1007.98 1007.92 1007.84 1007.56 1007.50 1007.61 1007.94 1008.23 1008.42 1008.70 1009.13 1009.57 1009.88 1009.91 1010.41 1010.53 1010.83
1005.63 1005.83 1005.42 1005.17 1005.45 1004.90 1004.42 1003.33 1002.34 1000.77 1000.77 1000.25 1000.02 999.94 1000.43 1001.08 1002.29 1003.07 1003.94 1004.93 1005.60 1006.28 1006.80 1007.07 1007.34 1007.77 1007.83 1007.85 1008.00 1008.00 1007.92 1007.99 1008.05 1007.95 1007.79 1007.52 1007.46 1007.63 1007.78 1007.98 1008.16 1008.51 1008.86 1009.44 1009.74 1009.90 1010.17 1010.56 1010.92
1004.51 1004.73 1005.00 1005.31 1005.88 1005.35 1004.21 1003.74 1002.54 1001.28 1000.75 1000.36 999.82 999.96 1000.15 1001.30 1002.29 1003.15 1004.11 1005.18 1005.60 1006.23 1006.69 1006.96 1007.43 1007.72 1007.63 1007.80 1007.96 1007.98 1008.18 1008.39 1008.20 1008.09 1007.84 1007.56 1007.41 1007.49 1007.63 1007.83 1008.00 1008.33 1008.73 1009.26 1009.62 1009.72 1009.88 1010.23 1010.90
1003.09 1004.32 1004.88 1005.26 1005.63 1005.46 1004.68 1004.68 1002.21 1001.90 1001.15 1000.25 999.95 999.96 1000.45 1001.35 1002.20 1003.23 1004.13 1005.02 1005.55 1006.20 1006.64 1007.07 1007.53 1007.56 1007.63 1007.76 1007.82 1007.95 1008.10 1008.28 1008.19 1008.03 1007.86 1007.60 1007.44 1007.53 1007.58 1007.62 1007.85 1008.20 1008.62 1009.10 1009.44 1009.65 1009.89 1010.16 1010.57
1002.84 1004.11 1004.87 1005.29 1005.81 1005.17 1003.96 1004.48 1002.11 1001.55 1000.47 999.83 999.37 999.80 1000.85 1001.94 1002.73 1003.92 1004.68 1005.25 1005.76 1006.33 1006.81 1007.27 1007.50 1007.54 1007.62 1007.74 1007.81 1007.90 1008.07 1008.30 1008.22 1008.05 1007.96 1007.80 1007.63 1007.50 1007.60 1007.53 1007.74 1008.08 1008.49 1008.98 1009.30 1009.62 1009.82 1010.13 1010.30
1002.85 1004.32 1005.93 1005.82 1005.62 1004.46 1003.42 1003.51 1000.88 999.96 999.38 999.30 999.54 1000.17 1001.05 1001.93 1002.70 1003.84 1004.56 1005.38 1005.95 1006.48 1007.03 1007.35 1007.43 1007.59 1007.68 1007.82 1007.84 1007.94 1008.16 1008.26 1008.23 1008.08 1007.96 1007.96 1007.76 1007.57 1007.60 1007.61 1007.84 1008.14 1008.47 1008.91 1009.19 1009.61 1009.89 1010.16 1010.39
1001.62 1003.08 1004.33 1005.04 1004.94 1003.99 1002.95 1001.70 999.22 998.44 998.42 998.48 999.06 1000.19 1001.14 1002.14 1002.94 1003.34 1004.27 1005.15 1005.92 1006.43 1006.97 1007.25 1007.36 1007.62 1007.66 1007.81 1007.84 1007.91 1008.09 1008.23 1008.23 1008.04 1007.98 1008.03 1007.88 1007.61 1007.56 1007.65 1007.86 1008.17 1008.49 1008.90 1009.28 1009.73 1009.96 1010.23 1010.51
1000.58 1001.35 1002.94 1004.05 1004.12 1003.62 1002.05 1000.30 998.75 998.26 998.36 998.82 999.55 1000.43 1001.42 1002.10 1002.49 1003.31 1004.33 1005.01 1005.76 1006.33 1006.86 1007.03 1007.32 1007.51 1007.69 1007.77 1007.86 1007.93 1008.08 1008.19 1008.18 1008.10 1007.95 1007.99 1007.79 1007.64 1007.62 1007.71 1007.89 1008.22 1008.58 1008.96 1009.35 1009.80 1010.18 1010.47 1010.85
998.78 1001.14 1002.48 1003.23 1003.69 1003.18 1001.45 1000.31 999.36 998.78 998.80 999.27 999.98 1000.58 1001.31 1002.16 1002.95 1003.49 1004.37 1004.96 1005.59 1006.07 1006.51 1006.90 1007.09 1007.32 1007.58 1007.76 1007.76 1007.88 1008.08 1008.10 1008.06 1008.14 1008.06 1008.00 1007.85 1007.78 1007.78 1007.85 1008.09 1008.38 1008.78 1009.15 1009.57 1010.07 1010.39 1010.78 1011.27
998.31 999.28 1000.22 1001.65 1002.30 1002.04 1001.50 999.49 998.34 998.18 998.51 999.12 999.67 1000.17 1001.08 1001.91 1002.51 1003.38 1004.15 1004.79 1005.31 1005.95 1006.44 1006.81 1007.17 1007.36 1007.63 1007.77 1007.77 1007.90 1008.11 1008.07 1008.13 1008.15 1008.25 1008.22 1008.12 1008.01 1008.00 1008.01 1008.24 1008.69 1009.07 1009.42 1009.85 1010.34 1010.72 1011.11 1011.61
997.15 998.24 999.18 1000.28 1000.98 1001.17 1000.76 998.59 997.55 997.26 997.74 998.24 998.93 999.98 1000.72 1001.61 1002.30 1003.20 1003.87 1004.62 1005.34 1005.93 1006.43 1006.75 1007.04 1007.21 1007.44 1007.65 1007.85 1007.98 1008.13 1008.21 1008.25 1008.35 1008.50 1008.45 1008.47 1008.29 1008.16 1008.25 1008.50 1009.01 1009.42 1009.75 1010.07 1010.54 1011.02 1011.46 1011.84
Wind_Speed
6 5 2 2 3 4 4 7 3 8 2 3 2 4 5 2 5 5 4 11 9 14 13 17 21 20 18 17 16 15 14 14 13 13 12 12 12 11 10 9 8 8 7 7 7 7 7 7 7
6 4 1 2 4 1 6 5 4 8 4 4 4 4 3 1 2 3 5 7 11 13 13 15 21 18 17 16 15 14 14 14 14 15 14 14 14 13 11 12 11 9 9 8 8 8 9 9 8
7 2 3 3 2 5 5 4 5 11 4 5 2 3 2 3 1 9 6 11 9 12 13 13 19 18 17 17 16 15 15 16 16 16 17 15 15 14 14 14 14 13 12 12 11 10 11 10 10
3 3 3 3 8 7 5 10 13 7 7 2 7 3 3 6 5 9 10 12 12 10 10 13 19 19 19 18 17 16 16 16 15 17 15 15 14 15 15 16 15 16 15 15 14 13 12 12 11
3 3 1 3 6 6 7 8 7 5 3 2 4 5 4 5 1 9 13 12 13 8 7 11 20 19 19 18 17 16 16 15 14 15 14 14 15 14 14 15 16 17 17 17 16 16 15 14 13
3 3 1 4 5 4 8 9 2 5 4 2 0 7 6 4 8 7 9 10 9 12 9 10 19 19 17 16 16 15 14 13 13 13 12 12 12 13 14 15 16 17 17 18 18 17 16 15 13
6 3 5 4 9 7 6 3 4 5 3 7 5 8 5 3 7 9 9 7 7 8 10 8 8 13 16 13 12 12 13 13 14 12 11 11 11 12 12 15 16 17 17 17 18 18 16 14 14
5 4 4 5 4 11 6 3 2 3 9 2 2 4 7 8 9 8 7 7 6 5 6 7 5 5 5 5 12 13 14 14 12 11 10 10 11 11 12 13 14 16 18 18 18 19 18 15 15
4 3 6 7 6 10 3 3 5 4 4 3 8 7 6 11 10 7 5 3 2 3 5 6 7 7 7 7 6 9 13 13 12 11 11 9 4 5 6 7 10 12 14 17 18 19 19 17 16
6 5 10 10 6 7 10 3 8 5 9 5 5 3 2 15 14 14 10 10 8 8 7 8 8 8 8 4 4 4 5 4 4 5 6 3 5 5 5 8 13 14 15 15 13 15 18 16 4
7 12 23 9 10 5 9 20 10 9 10 10 8 6 7 7 12 14 13 14 16 8 6 9 8 7 8 6 4 2 3 3 3 6 6 5 3 3 3 3 3 3 8 3 5 5 4 5 4
5 12 18 18 18 6 13 10 16 18 21 20 13 10 11 14 16 16 15 13 9 10 10 10 8 7 7 4 4 4 4 3 3 4 5 4 3 4 4 3 4 3 3 4 4 2 3 4 6
7 14 15 15 15 17 17 15 20 21 21 13 7 11 16 16 17 16 13 8 8 10 11 10 8 7 6 6 4 4 5 4 4 4 5 4 4 5 4 4 3 4 3 3 4 4 3 4 5
6 8 13 11 16 19 19 19 10 16 13 10 9 15 16 16 20 10 8 9 10 10 12 9 8 7 6 5 6 4 3 4 4 4 5 6 4 4 5 4 4 4 4 4 4 4 4 4 4
7 15 15 10 14 12 18 17 22 18 12 11 11 14 15 18 13 18 18 15 16 10 10 10 8 7 8 6 5 4 4 4 4 4 5 6 6 6 5 4 4 4 4 5 4 3 3 3 3
5 4 7 9 16 15 8 20 19 16 10 16 10 10 11 16 18 17 8 8 9 10 12 8 7 8 7 5 3 3 3 3 3 3 3 5 5 5 4 4 4 4 3 4 4 3 3 3 4
3 14 17 21 13 6 6 19 12 8 7 13 11 12 14 19 13 8 10 10 12 12 10 8 7 8 7 4 3 3 4 3 2 2 3 4 4 5 5 4 4 3 3 3 4 2 3 3 3
13 9 7 16 3 9 15 17 17 14 12 13 13 14 12 12 18 9 11 12 11 9 8 8 6 7 5 2 1 0 0 0 1 2 3 4 4 4 4 4 4 4 3 3 3 3 2 3 4
10 6 10 17 2 8 7 11 12 14 8 11 11 10 11 7 3 7 12 15 12 8 8 8 8 6 3 1 1 0 1 1 2 2 5 5 4 4 4 3 3 4 5 5 5 3 4 2 4
10 11 16 19 6 6 8 15 14 13 10 10 12 9 6 3 6 9 12 13 13 11 8 8 7 6 3 2 2 1 1 2 2 2 3 4 3 4 4 4 4 5 4 5 4 4 2 2 3
18 18 17 20 3 7 7 14 13 18 5 8 10 9 6 11 11 13 15 12 11 10 9 8 8 6 4 3 1 1 1 2 2 2 2 3 1 4 4 4 4 5 4 5 5 4 4 3 2
19 14 17 18 4 8 4 7 6 9 13 7 9 9 8 6 8 13 13 10 11 8 7 8 7 6 4 4 1 2 1 1 2 2 2 4 1 2 3 4 5 6 4 5 4 4 3 4 4
17 12 9 13 8 5 7 3 8 4 8 10 9 9 4 8 11 13 15 12 7 8 8 7 7 5 4 3 2 2 0 1 1 1 2 3 2 2 3 4 5 5 4 5 6 5 5 3 4
8 2 2 11 3 11 18 7 6 7 9 7 5 3 7 8 11 9 8 8 7 6 7 7 7 4 4 4 3 4 4 1 1 2 2 3 2 1 3 4 4 5 5 6 5 4 6 4 4
12 7 4 3 5 7 8 6 15 7 9 9 9 7 9 12 15 15 15 9 8 9 8 6 7 5 5 4 5 4 4 2 1 2 2 3 2 0 1 3 4 3 4 5 6 5 5 5 5
14 15 7 6 4 5 7 8 10 10 9 9 4 6 9 10 9 15 14 11 10 10 8 7 7 5 5 4 4 3 3 1 0 2 1 1 1 2 1 3 5 6 6 5 5 4 3 4 4
17 17 12 2 3 2 5 7 9 1 3 3 9 10 10 11 13 14 11 10 10 9 9 9 7 5 6 4 4 3 2 1 2 3 2 1 1 2 3 2 5 5 6 6 6 4 5 4 3
10 11 8 6 6 5 5 3 7 5 7 4 7 9 8 8 9 10 10 9 9 9 7 7 7 8 6 5 4 3 2 2 2 2 3 3 3 3 4 4 5 5 5 6 7 4 5 6 3
9 11 5 8 5 6 1 7 8 9 9 12 10 10 11 12 13 12 11 9 10 7 7 7 7 7 6 5 3 2 1 2 2 2 2 3 3 4 4 4 6 6 6 6 8 8 8 7 6
19 16 10 12 9 6 3 9 5 11 14 14 14 10 8 9 11 12 11 10 8 8 7 8 7 7 6 6 4 2 3 4 3 3 2 3 5 4 3 5 5 7 7 6 9 8 8 9 8
Wind_Direction
149 160 182 51 54 62 263 257 276 309 261 232 146 153 199 103 160 215 318 171 135 158 165 178 187 189 185 186 186 191 195 199 204 209 211 213 217 217 219 229 230 232 241 247 247 259 262 266 266
147 156 63 77 105 116 261 258 262 240 224 97 49 36 11 155 145 140 105 191 160 155 164 179 190 186 187 190 191 196 201 207 212 218 221 219 224 223 229 238 243 247 247 248 248 247 253 254 258
144 184 87 105 163 201 225 248 257 288 291 170 81 53 226 226 196 174 229 150 143 160 171 181 182 185 190 193 195 201 209 213 218 224 228 229 232 223 231 236 241 245 248 246 240 243 248 246 250
138 26 37 110 240 265 237 278 282 281 307 231 144 165 272 209 176 190 138 144 155 167 168 174 182 189 192 194 195 202 211 222 226 229 229 232 234 227 233 236 242 244 246 252 259 247 244 247 240
43 55 101 236 245 250 251 257 276 264 225 174 165 204 241 293 141 129 143 157 161 167 157 175 185 190 194 196 200 203 211 221 230 230 230 234 235 237 239 243 243 243 250 251 250 251 242 238 242
59 98 49 252 229 233 282 264 250 274 281 156 163 146 225 298 135 163 150 168 171 161 169 179 188 191 194 199 204 205 211 216 221 220 223 234 245 250 250 250 250 252 253 255 252 252 246 239 239
127 106 221 242 278 296 241 299 270 300 237 242 151 152 242 244 181 155 162 156 161 169 170 174 185 190 194 196 201 202 210 212 217 215 217 229 239 248 254 258 261 260 258 257 258 253 251 245 237
133 119 260 241 235 277 219 285 281 282 283 68 71 201 247 206 151 136 140 158 161 162 157 158 145 153 171 188 202 205 212 219 221 217 218 225 235 240 245 252 259 261 260 262 261 255 253 247 240
133 102 254 239 195 250 169 350 302 284 247 236 202 173 250 140 124 117 121 115 140 173 167 150 155 172 177 191 209 228 234 230 223 221 221 218 206 232 248 257 254 252 254 256 256 253 251 245 234
156 152 236 217 194 253 296 182 291 303 301 283 284 218 124 145 158 163 168 186 197 191 189 177 171 184 171 160 191 249 238 232 222 212 208 209 214 213 218 244 252 250 254 258 266 258 253 239 187
190 209 231 265 243 219 286 294 297 272 279 246 231 213 161 158 178 183 188 195 200 185 169 175 173 174 148 163 173 198 214 214 219 210 203 213 217 220 224 246 256 276 269 271 282 289 260 185 170
223 234 241 250 259 271 261 292 289 288 275 279 237 184 167 181 188 193 200 206 172 173 168 169 177 158 178 165 174 191 202 206 210 208 204 193 212 218 226 227 230 236 247 258 245 250 241 189 176
190 244 248 270 284 275 278 266 266 280 279 271 248 161 187 194 199 206 205 202 165 168 167 173 163 166 181 190 189 201 195 202 210 211 218 193 201 215 214 229 236 231 238 239 244 227 209 197 183
245 254 267 257 261 273 275 272 278 271 278 269 190 195 197 200 205 200 184 193 181 162 168 164 170 178 177 198 201 210 211 221 214 221 226 212 210 219 214 211 223 234 212 230 224 213 193 193 172
260 285 280 258 266 259 266 271 265 272 271 267 222 214 206 212 208 215 201 190 179 164 155 167 173 174 186 198 203 204 221 227 228 235 235 224 210 223 207 205 217 226 209 218 220 218 187 168 169
338 293 270 269 252 255 208 271 274 278 260 266 238 229 216 225 215 222 194 163 144 147 160 164 167 174 176 174 202 212 228 222 227 245 246 239 232 214 196 202 221 220 209 196 196 180 158 163 178
257 261 264 278 250 260 199 275 275 266 257 261 256 220 216 231 224 195 172 155 151 154 151 151 161 164 165 182 206 223 231 211 235 262 257 258 243 213 191 209 226 214 202 185 169 142 136 166 174
216 229 259 255 140 225 252 261 272 272 244 252 263 253 220 217 229 177 155 141 140 148 150 145 163 149 149 155 237 341 275 258 233 261 265 271 256 232 195 216 217 186 158 162 151 137 157 174 174
236 221 246 259 191 233 244 263 271 278 296 266 259 244 243 238 193 148 146 142 137 146 140 158 149 151 136 195 151 316 295 283 256 256 265 275 255 226 203 214 205 169 169 165 164 133 166 153 133
242 247 253 284 272 244 270 269 276 278 263 237 261 261 248 198 145 142 144 145 147 152 154 155 145 150 174 169 199 199 211 275 254 263 283 286 270 211 193 196 206 169 155 151 166 149 131 90 163
222 229 246 250 336 264 285 282 284 283 249 260 246 233 224 202 165 156 153 150 146 147 157 152 153 168 185 171 132 17 31 15 344 299 317 317 302 203 187 191 173 163 159 161 173 150 146 127 47
224 214 242 259 277 262 128 284 296 285 303 287 258 237 241 171 145 148 148 153 153 154 147 140 153 174 182 162 142 101 142 255 254 272 298 306 330 230 209 168 176 161 152 154 171 171 168 129 141
231 223 225 247 232 259 247 271 264 232 284 280 264 247 215 154 145 152 153 155 148 142 151 147 161 179 163 160 147 100 105 244 285 300 329 330 322 301 247 170 171 164 158 153 158 177 143 115 125
205 250 264 254 236 253 263 185 226 233 222 258 246 222 142 127 124 124 136 141 133 131 136 151 166 174 164 137 102 104 107 170 4 340 345 333 313 312 311 168 167 162 153 153 162 157 148 138 128
201 127 259 281 220 226 236 188 244 248 233 223 259 179 153 146 145 151 158 151 143 149 157 165 174 156 154 155 110 119 124 182 354 322 4 353 306 353 324 145 144 144 154 145 150 148 144 150 158
210 180 170 199 208 194 181 231 249 214 230 230 210 147 143 146 159 158 159 153 158 160 164 174 175 144 164 153 125 128 154 221 7 349 4 357 336 322 331 133 140 149 143 141 135 127 135 148 138
200 206 179 34 291 126 221 281 322 33 262 158 144 143 166 163 159 156 155 155 159 161 174 178 163 169 171 168 140 154 154 162 49 29 36 360 1 11 45 135 144 143 137 134 127 130 129 118 121
171 159 172 198 202 219 268 220 222 213 223 165 155 175 165 140 147 150 162 158 169 171 173 175 166 176 173 169 170 162 171 167 99 86 69 58 21 46 60 85 121 130 122 123 117 107 107 102 85
175 178 176 151 195 170 208 256 209 206 184 187 198 190 158 172 162 163 167 165 173 158 165 176 167 166 169 172 190 154 127 86 84 89 92 54 41 55 74 93 109 107 107 108 105 130 134 129 109
203 198 186 192 194 241 161 260 238 197 195 185 191 173 169 172 159 166 165 156 159 171 168 174 173 171 178 177 164 162 108 108 104 76 82 64 61 62 88 102 100 106 107 106 125 135 144 143 139